Terug naar catalogus

NAVSTAR 31

USA 90

ActiefNavigatieMEO
NORAD 22581·PAYLOAD·🇺🇸 United States

Gelanceerd Mar 30, 1993 vanaf Cape Canaveral Space Force Station

Loading…

Volgende Passages (komende 24 uur)

TLE

VersSource: Space-Track

Epoch: Sep 11, 2026, 03:40 UTC

1 22581U 93017A   26254.15322598 -.00000043  00000-0  00000-0 0  9990
2 22581  54.0582 295.0285 0001939 122.8910 234.2708  1.88946957 90800

Volg NAVSTAR 31 in realtime met AllMySat

Download on the App Store